Location: *
(55.6049°S, 142.1985°W)
Time: 09:06:28
(UTC+00:00)

Aureole 3 - Pass Details

Date: 12 May 2021
Orbit: 381 x 1230 km, 82.5° (Epoch: 13 June)

Event Time Altitude Azimuth Distance (km) Brightness Sun altitude
Rises 16:08:10 0° 330° (NNW) 2,448 6.5 -9.2°
Reaches altitude 10° 16:10:07 10° 323° (NW) 1,661 5.6 -8.9°
Maximum altitude 16:13:34 44° 249° (WSW) 779 3.6 -8.4°
Drops below altitude 10° 16:17:52 10° 176° (S) 2,072 6.1 -7.9°
Sets 16:20:32 0° 169° (S) 3,147 7.1 -7.5°
